Regional Weather Roundup
Issued by NWS

Home | Current Version | Previous Version | Graphics & Text | Print | Product List | Glossary On
Versions: 1 2 3 4 5 6 7 8 9 10 11 12 13 14 15 16 17 18 19 20 21 22 23 24 25 26 27 28 29 30 31 32 33 34 35 36 37 38 39 40 41 42
633
ASUS44 KJAN 270810
RWRMS

MISSISSIPPI HOURLY WEATHER ROUNDUP
NATIONAL WEATHER SERVICE JACKSON MS
200 AM CST SAT DEC 27 2014

NOTE: "FAIR: INDICATES FEW OR NO CLOUDS BELOW 12,000 FEET WITH NO
SIGNIFICANT WEATHER AND/OR OBSTRUCTIONS TO VISIBILITY.

MSZ001>002-007>008-010>013-018>021-025>028-034>036-270900-
NORTHWEST MISSISSIPPI

CITY           SKY/WX    TMP DP  RH WIND       PRES   REMARKS
CLARKSDALE     CLOUDY    54  48  82 SE5       30.14S
CLEVELAND      CLOUDY    54  51  87 SE7       30.12S
GREENWOOD      CLOUDY    55  48  77 S8        30.14S
GREENVILLE     CLOUDY    55  50  83 SE8       30.11S
GRENADA        CLOUDY    52  46  82 CALM      30.16S
OLIVE BRANCH   CLOUDY    50  48  93 SE7       30.15S
OXFORD         CLOUDY    50  43  76 S7G16     30.16F
TUNICA         CLOUDY    52  46  82 SE7       30.14R
$$

MSZ003>006-009-014>017-022>024-029>033-037>039-270900-
NORTHEAST MISSISSIPPI

CITY           SKY/WX    TMP DP  RH WIND       PRES   REMARKS
COLUMBUS AFB   MOCLDY    52  40  65 SE7       30.19F
CORINTH        CLOUDY    50  43  76 S7        30.18R
GOLDN TRIANGLE CLOUDY    52  39  62 S8        30.18F
STARKVILLE     CLOUDY    52  43  71 S8        30.18S
TUPELO         PTCLDY    49  41  74 MISG      30.18F
$$

MSZ040-058-270900-
CENTRAL MISSISSIPPI

CITY           SKY/WX    TMP DP  RH WIND       PRES   REMARKS
JACKSON INTL   CLOUDY    56  49  77 SE10      30.16S
JACKSON HAWKNS CLOUDY    56  49  77 SE13      30.15S
MERIDIAN KEY   CLOUDY    52  44  74 S3        30.20R
MERIDIAN NAS   CLOUDY    50  43  77 E3        30.19F
RAYMOND        CLOUDY    57  52  82 SE9       30.15R
VICKSBURG      CLOUDY    59  52  77 S10       30.13R
$$

MSZ059>079-270900-
SOUTH MISSISSIPPI

CITY           SKY/WX    TMP DP  RH WIND       PRES   REMARKS
HATTIESBURG    CLOUDY    56  47  71 E5        30.17S
MCCOMB         HVY RAIN  56  56 100 CALM      30.15S FOG
NATCHEZ        CLOUDY    59  55  88 SE14      30.12F
PINE BELT      MOCLDY    55  45  67 NE5       30.17S
$$

MSZ080>082-270900-
COASTAL MISSISSIPPI

CITY           SKY/WX    TMP DP  RH WIND       PRES   REMARKS
BILOXI         MOCLDY    61  55  81 E6        30.15S
PASCAGOULA     CLOUDY    58  51  78 E6        30.17R
GULFPORT       CLOUDY    62  56  80 E14       30.14F
$$



USA.gov is the U.S. government's official web portal to all federal, state and local government web resources and services.